Location: Alincthun
(50.7310°N, 1.8022°E)
Time: 21:46:09
(UTC+00:00)

PAYLOAD A - Pass Details

Date: 17 February 2020
Orbit: 693 x 831 km, 98.3° (Epoch: 05 April)

Event Time Altitude Azimuth Distance (km) Brightness Sun altitude
Rises 04:05:23 0° 15° (NNE) 3,119 7.6 -28.4°
Reaches altitude 10° 04:07:37 10° 17° (NNE) 2,210 6.7 -28.1°
Enters shadow 04:12:28 77° 102° (ESE) 758 3.9 -27.4°
